Weather WX

World > North America > United States > Ohio

Elba, Ohio Regional Weather

Lat: 39.61N, Lon: 81.41W
Wx Zone: OHZ076
Warning FLW WEATHER ALERT - (More Info. Click Here) Warning
Feedback

Elba, OH Regional Weather

Expires:201907170300;;758523
ASUS41 KCLE 170212
RWRCLE
OHIO REGIONAL WEATHER ROUNDUP
NATIONAL WEATHER SERVICE WILMINGTON, OH
1000 PM EDT TUE JUL 16 2019

NOTE: "FAIR" INDICATES FEW OR NO CLOUDS BELOW 12,000 FEET WITH NO
SIGNIFICANT WEATHER AND/OR OBSTRUCTIONS TO VISIBILITY.


OHZ036-037-039>041-045>050-054>059-063>069-073>076-082>088-170300-
  CENTRAL AND SOUTHEAST OHIO
  
CITY           SKY/WX    TMP DP  RH WIND       PRES   REMARKS
COLUMBUS       TSTM      77  71  82 W10       29.99R FOG              
OSU AIRPORT    TSTM      73  69  87 VRB3      29.99R FOG              
BOLTON FIELD   MOCLDY    74  73  95 CALM      29.98S                  
RICKENBACK AFB FAIR      75  72  89 NW7       29.97R                  
NEWARK         FAIR      75  72  90 CALM      29.98R                  
MARION         FAIR      73  70  90 S6        29.98F                  
LANCASTER      FAIR      80  68  66 S8        29.98S                  
ZANESVILLE     FAIR      78  71  79 S9        29.99S                  
NEW PHILLY     MOCLDY    78  72  81 CALM      30.00R                  
$$
  

SKY/WX - Weather  TMP - Temperature  DP - Dew Point  RH - Relative Humidity
WIND - Wind Direction/Speed PRES - Barometric Pressure VSB - Visibility
WCI - Wind Chill Index E13G22 Wind - East Wind 13 mph/Gusts of 22 mph